Location: Dennehotso
(36.8461°N, 109.8435°W)
Time: 19:33:29
(UTC+00:00)

ISS - Pass Details

Date: 14 March 2021
Orbit: 418 x 422 km, 51.6° (Epoch: 16 April)

Event Time Altitude Azimuth Distance (km) Brightness Sun altitude
Exits shadow 12:37:42 16° 237° (WSW) 1,183 -2.0 -11.5°
Maximum altitude 12:37:58 16° 231° (SW) 1,177 -2.0 -11.5°
Drops below altitude 10° 12:40:06 10° 191° (SSW) 1,486 -1.1 -11.1°
Sets 12:42:45 0° 169° (S) 2,345 0.1 -10.5°
